Location: Alsip
(41.6689°N, 87.7387°W)
Time: 13:23:28
(UTC+00:00)

Cosmos 2278 Rocket - Pass Details

Date: 14 July 2020
Orbit: 841 x 846 km, 71.0° (Epoch: 04 August)

Event Time Altitude Azimuth Distance (km) Brightness Sun altitude
Rises 03:37:48 0° 326° (NW) 3,411 7.1 -19.0°
Reaches altitude 10° 03:40:29 10° 317° (NW) 2,470 5.8 -19.3°
Maximum altitude 03:45:25 32° 256° (WSW) 1,419 3.5 -19.8°
Enters shadow 03:48:49 17° 205° (SSW) 1,982 3.8 -20.1°
